Location: Newark
(48.1500°N, 2.9667°W)
Time: 20:30:54
(UTC+00:00)

A-11 Canister half - Pass Details

Date: 27 January 2020
Orbit: 1524 x 1684 km, 47.3° (Epoch: 19 February)

Event Time Altitude Azimuth Distance (km) Brightness Sun altitude
Rises 17:32:01 0° 232° (SW) 4,665 13.4 -5.3°
Reaches altitude 10° 17:35:04 10° 229° (SW) 3,690 12.4 -5.8°
Maximum altitude 17:44:08 60° 152° (SSE) 1,734 9.3 -7.2°
Drops below altitude 10° 17:53:27 10° 76° (ENE) 3,786 10.4 -8.6°
Enters shadow 17:53:31 10° 76° (ENE) 3,809 10.4 -8.6°
Sets 17:56:37 0° 73° (ENE) 4,794 - -9.1°
